Location: Peebles
(55.6412°N, 3.1714°W)
Time: 22:53:23
(UTC+01:00)

USA 238 DEB - Pass Details

Date: 24 January 2022
Orbit: 969 x 1243 km, 63.4° (Epoch: 04 May)

Event Time Altitude Azimuth Distance (km) Brightness Sun altitude
Rises 18:55:19 0° 258° (WSW) 3,745 8.1 -19.9°
Reaches altitude 10° 18:57:56 10° 264° (W) 2,826 7.1 -20.3°
Maximum altitude 19:04:28 54° 341° (NNW) 1,299 4.2 -21.2°
Enters shadow 19:08:14 27° 46° (NE) 1,979 4.7 -21.7°
